Flag for U.S.A. Weather past 2 weeks in Wilmington, Delaware, U.S.A.

Now
36 °F

Clear.


Feels Like: 26 °F
Forecast: 32 / 42 °F
Wind: 18 mph from Northwest

Location: New Castle County Airport

Current Time: Dec 18, 2014 at 4:36:23 AM

Latest Report: Dec 18, 2014 at 3:51 AM


Visibility: 10 mi

Pressure: 30.03 "Hg

Humidity: 46%

Dew point: 17 °F

Location of WilmingtonLocation

Historic Weather in Wilmington — Graph

°F

Wilmington temperature yesterday

Maximum temperature yesterday: 53 °F (at 11:51 AM)
Minimum temperature yesterday: 37 °F (at 11:51 PM)
Average temperature yesterday: 44 °F

Past Weeks' High & Low Weather Summary

 TemperatureHumidityPressure
High53 °F (Dec 17, 11:51 AM)97% (Dec 3, 7:51 AM)30.63 "Hg (Dec 3, 7:51 AM)
Low29 °F (Dec 8, 2:51 AM)32% (Dec 7, 1:51 PM)29.72 "Hg (Dec 10, 5:51 AM)
Average40 °F72%30.11 "Hg
* Reported Dec 3 2:51 AM — Dec 18 2:51 AM, Wilmington, Weather by CustomWeather, © 2014

Note: Actual official high and low records may vary slightly from our data, if they occured in-between our weather recording intervals... More about our weather records

Advertising

Wilmington weather history for previous 24 hours

 ConditionsComfort  
Time TempWeatherWind HumidityBarometerVisibility
2:51 AM
Dec 18
36 °FPassing clouds.15 mph52%30.03 "Hg10 mi
1:51 AM37 °FClear.21 mph52%30.01 "Hg10 mi
12:51 AM37 °FClear.15 mph54%30.01 "Hg10 mi
11:51 PM
Dec 17
37 °FClear.13 mph57%30.00 "Hg10 mi
10:51 PM38 °FPassing clouds.9 mph58%30.01 "Hg10 mi
9:51 PM39 °FPassing clouds.9 mph57%30.01 "Hg10 mi
8:51 PM40 °FPassing clouds.13 mph55%30.00 "Hg10 mi
7:51 PM40 °FClear.10 mph58%30.00 "Hg10 mi
6:51 PM42 °FClear.15 mph55%29.98 "Hg10 mi
5:51 PM44 °FClear.13 mph53%29.98 "Hg10 mi
4:51 PM46 °FPassing clouds.22 mph51%29.96 "Hg10 mi
3:51 PM49 °FOvercast.15 mph52%29.94 "Hg10 mi
2:51 PM51 °FOvercast.18 mph48%29.92 "Hg10 mi
1:51 PM52 °FOvercast.18 mph55%29.91 "Hg10 mi
12:51 PM52 °FOvercast.24 mph53%29.91 "Hg10 mi
11:51 AM53 °FPartly sunny.12 mph59%29.91 "Hg10 mi
10:51 AM51 °FPartly sunny.8 mph71%29.94 "Hg10 mi
9:51 AM47 °FOvercast.8 mph83%29.96 "Hg10 mi
8:51 AM43 °FFog.3 mph89%29.93 "Hg6 mi
7:51 AM40 °FFog.5 mph97%29.92 "Hg2 mi
6:51 AM40 °FFog.No wind93%29.91 "Hg3 mi
5:51 AM41 °FFog.5 mph93%29.90 "Hg2 mi
4:51 AM40 °FFog.5 mph97%29.89 "Hg3 mi
Weather by CustomWeather, © 2014

See weather overviewHow to use our weather pages